Date,TemperatureHighF,TemperatureAvgF,TemperatureLowF,DewpointHighF,DewpointAvgF,DewpointLowF,HumidityHigh,HumidityAvg,HumidityLow,PressureMaxIn,PressureMinIn,WindSpeedMaxMPH,WindSpeedAvgMPH,GustSpeedMaxMPH,PrecipitationSumIn
2013-1-8,47,36,31,22,20,18,63,53,35,30.34,30.24,7,2,2,0.00
2013-1-9,44,37,25,28,21,16,70,54,36,30.33,29.97,24,5,16,0.13
2013-1-10,44,36,30,28,20,17,73,53,34,30.51,30.08,22,7,3,0.14
2013-1-11,41,37,29,36,24,15,80,62,37,30.40,30.07,13,5,0,0.18
2013-1-12,59,43,38,43,38,34,87,80,56,30.12,30.04,8,2,0,0.00
2013-1-13,55,45,38,46,40,34,87,83,70,30.11,29.90,12,2,0,0.00
2013-1-14,50,43,32,45,33,21,87,70,46,30.28,29.81,20,8,20,0.04
2013-1-15,34,31,27,22,19,16,72,63,53,30.31,30.18,7,2,6,0.00
2013-1-16,32,29,27,27,23,17,84,79,60,30.19,29.78,6,0,0,0.00
2013-1-17,35,29,20,26,17,3,84,62,43,30.11,29.81,17,6,0,0.06
2013-1-18,24,16,7,4,-2,-12,71,44,25,30.40,30.04,17,5,20,0.00
2013-1-19,45,36,24,20,13,3,46,39,31,30.20,29.75,12,5,7,0.00
2013-1-20,45,36,20,29,16,4,75,46,31,29.96,29.50,23,10,0,0.12
2013-1-21,24,20,17,14,6,0,77,56,41,30.01,29.74,9,4,5,0.00
2013-1-22,19,13,7,13,0,-8,81,57,35,30.03,29.72,18,8,18,0.00
2013-1-23,9,4,-2,0,-12,-14,74,49,37,30.10,30.02,16,8,0,0.00
2013-1-24,14,3,-5,-6,-11,-14,69,53,32,30.27,30.06,20,6,0,0.00
2013-1-25,17,8,1,4,-8,-13,75,48,28,30.31,30.01,12,3,0,0.00
2013-1-26,20,11,4,3,-1,-4,76,61,41,30.26,29.99,8,2,8,0.00
2013-1-27,26,15,6,6,-2,-6,77,50,26,30.43,30.25,9,3,0,0.00
2013-1-28,29,24,13,25,13,-3,84,66,38,30.41,29.91,12,4,11,0.00
2013-1-29,40,34,28,33,28,23,83,80,75,30.10,29.93,13,2,8,0.08
2013-1-30,61,53,40,53,46,34,83,77,70,29.99,29.33,22,8,0,0.92
2013-1-31,57,40,23,52,31,10,88,70,48,29.59,28.90,28,9,0,0.67
2013-2-1,27,21,15,12,5,0,70,50,37,30.08,29.58,22,10,0,0.01
2013-2-2,27,18,10,10,4,-2,69,54,35,30.15,29.96,15,5,9,0.00
2013-2-3,29,20,13,10,8,5,72,58,40,29.99,29.71,8,2,0,0.00
2013-2-4,25,19,14,12,6,0,72,58,36,29.89,29.71,21,9,33,0.00
2013-2-5,32,20,14,12,7,4,71,56,34,29.95,29.83,8,2,3,0.00
2013-2-6,32,25,16,19,10,-2,74,55,29,30.30,29.84,25,8,0,0.00
2013-2-7,27,19,9,5,0,-4,68,44,27,30.47,30.29,8,2,5,0.00
2013-2-8,31,26,21,18,13,2,78,59,36,30.32,29.75,26,9,0,0.19
2013-2-9,24,15,8,15,1,-9,79,54,30,30.29,29.77,17,7,11,0.04
2013-2-10,37,18,4,0,-4,-9,57,38,16,30.42,30.21,12,2,3,0.00
2013-2-11,48,38,22,37,21,-18,79,58,9,30.21,29.62,16,8,23,0.06
2013-2-12,35,34,31,27,24,20,73,65,59,29.88,29.66,25,12,0,0.07
2013-2-13,42,32,29,23,20,15,73,60,35,29.85,29.69,13,5,6,0.00
2013-2-14,38,34,23,36,22,15,95,61,44,29.92,29.00,10,3,4,0.00
2013-2-15,45,39,30,27,22,17,78,52,38,29.98,29.84,14,5,15,0.00
2013-2-16,36,28,20,24,14,0,82,59,34,29.98,29.79,12,4,0,0.00
2013-2-17,25,17,10,2,-2,-8,55,43,25,29.84,29.59,21,8,0,0.00
2013-2-18,25,15,5,2,-4,-11,58,43,25,30.12,29.84,23,11,0,0.00
2013-2-19,45,32,19,31,16,0,80,53,31,30.10,29.59,17,6,0,0.17
2013-2-20,30,25,22,24,12,5,80,58,41,29.83,29.62,26,8,0,0.09
2013-2-21,22,20,17,12,7,2,74,58,48,30.07,29.81,25,12,0,0.00
2013-2-22,37,25,17,20,13,5,76,62,49,30.37,30.00,14,4,22,0.00
2013-2-23,36,34,32,28,24,19,77,68,54,30.22,29.84,9,5,15,0.00
2013-2-24,36,32,29,31,27,23,87,80,73,29.92,29.73,12,1,0,0.06
2013-2-25,41,34,26,27,24,20,78,66,50,30.20,29.92,3,0,0,0.01
2013-2-26,44,36,25,28,23,20,82,62,45,30.26,30.00,16,4,11,0.01
2013-2-27,44,38,31,33,28,20,84,67,52,30.00,29.54,31,14,0,0.78
2013-2-28,46,37,34,34,30,27,82,74,57,29.58,29.53,8,2,2,0.01
2013-3-1,36,33,30,29,26,23,84,75,64,29.73,29.57,9,2,0,0.02
2013-3-2,34,30,25,25,23,20,83,76,62,29.73,29.67,8,4,0,0.00
2013-3-3,29,24,20,21,17,14,81,73,67,29.71,29.65,14,6,0,0.01
2013-3-4,32,26,23,19,16,14,76,67,53,29.87,29.69,21,10,0,0.44
2013-3-5,40,31,25,23,20,17,77,65,50,30.04,29.86,6,2,4,0.00
2013-3-6,39,34,25,29,24,19,80,66,54,30.09,29.99,24,7,0,0.00
2013-3-7,35,32,27,26,22,18,85,68,55,30.11,30.05,13,6,0,0.04
2013-3-8,35,30,27,25,22,20,85,74,60,30.24,30.04,13,7,0,0.01
2013-3-9,54,37,25,22,18,16,72,50,24,30.29,30.22,6,2,0,0.00
2013-3-10,60,44,29,22,16,4,65,36,12,30.32,30.15,12,3,0,0.00
2013-3-11,53,46,40,36,24,17,66,42,28,30.19,29.98,14,5,0,0.00
2013-3-12,53,47,36,46,40,31,85,76,65,29.99,29.64,16,9,16,0.43
2013-3-13,44,37,31,31,22,13,79,58,29,29.83,29.74,20,8,0,0.01
2013-3-14,31,24,21,20,8,3,65,49,39,29.84,29.78,26,11,29,0.00
2013-3-15,34,28,23,25,13,4,77,54,40,29.83,29.60,20,8,18,0.00
2013-3-16,37,28,19,21,11,7,76,49,34,29.86,29.72,8,3,0,0.00
2013-3-17,34,26,17,32,5,-5,95,45,19,30.27,29.86,16,6,0,0.00
2013-3-18,38,28,13,20,-2,-13,78,33,11,30.38,30.04,14,4,8,0.00
2013-3-19,35,32,26,30,22,19,86,69,59,30.04,29.66,21,5,0,0.07
2013-3-20,35,28,21,21,16,14,80,63,49,29.75,29.71,20,7,0,0.01
2013-3-21,32,32,32,16,16,16,50,50,50,29.72,29.72,17,4,0,0.00
2013-3-22,32,31,26,31,16,15,95,55,50,29.77,29.71,20,2,30,0.00
2013-3-23,36,32,27,21,17,14,77,56,40,29.77,29.72,24,10,0,0.02
2013-3-24,36,36,36,14,14,14,40,40,40,29.77,29.77,8,3,0,0.00
2013-3-25,43,38,35,24,18,14,63,45,40,29.77,29.50,16,2,17,0.00
2013-3-26,47,37,32,26,20,15,73,53,29,29.80,29.57,10,3,0,0.00
2013-3-27,50,39,31,32,23,15,66,53,39,29.90,29.80,15,5,13,0.01
2013-3-28,48,40,34,32,29,25,82,66,48,30.06,29.90,8,4,0,0.00
2013-3-29,49,40,35,30,28,26,71,64,47,30.09,30.02,13,7,0,0.00
2013-3-30,54,44,34,28,22,11,71,46,19,30.10,30.01,13,5,0,0.00
2013-3-31,55,46,36,35,28,14,81,55,21,30.08,29.69,17,7,0,0.12
2013-4-1,55,40,32,39,28,6,84,64,30,29.82,29.52,25,9,6,0.31
2013-4-2,34,30,24,22,14,7,81,53,34,29.94,29.83,30,16,10,0.26
2013-4-3,39,30,24,21,13,6,78,51,28,30.22,29.93,28,14,0,0.05
2013-4-4,53,38,26,19,15,9,68,43,18,30.28,29.94,16,7,0,0.00
2013-4-5,52,44,34,27,18,10,74,37,22,29.94,29.72,20,8,0,0.00
2013-4-6,49,36,26,26,3,-12,73,27,8,30.25,29.94,10,4,10,0.00
2013-4-7,58,44,32,37,20,6,56,38,18,30.22,29.85,20,8,16,0.12
2013-4-8,67,52,41,37,32,26,69,49,23,30.09,29.93,10,4,8,0.00
2013-4-9,63,56,32,100,42,36,74,59,41,30.01,29.80,26,8,15,0.12
2013-4-10,51,48,46,44,42,39,89,82,63,29.98,29.88,9,2,0,0.26
2013-4-27,68,57,50,32,28,25,46,34,21,30.32,30.28,8,2,8,0.00
2013-4-28,73,58,43,41,34,28,60,43,24,30.31,30.13,18,5,19,0.00
2013-4-29,62,58,51,44,38,30,64,47,39,30.24,29.48,22,9,22,0.01
2013-4-30,74,56,46,47,40,30,86,57,28,30.31,30.22,13,4,15,0.05
2013-5-1,80,63,46,41,30,22,47,31,16,30.45,30.31,13,4,14,0.00
2013-5-2,77,61,49,47,41,21,71,50,22,30.47,30.37,16,4,16,0.00
2013-5-3,74,64,50,42,35,28,57,35,18,30.49,30.33,17,8,20,0.00
2013-5-4,80,63,47,47,39,24,77,45,16,30.36,30.20,17,6,17,0.00
2013-5-5,79,59,43,36,26,15,55,31,10,30.29,30.16,12,4,15,0.00
2013-5-6,79,62,44,47,38,24,80,46,14,30.26,30.09,12,5,12,0.00
2013-5-7,84,67,54,53,50,46,80,55,27,30.18,30.06,14,5,15,0.00
2013-5-8,74,64,55,58,55,50,89,73,49,30.18,30.02,25,9,25,0.12
2013-5-9,74,62,52,56,53,49,92,74,49,30.02,29.88,14,4,14,0.01
2013-5-10,77,65,50,57,52,46,93,65,36,30.00,29.85,17,4,17,0.00
2013-5-11,70,63,54,61,56,50,91,79,55,29.85,29.66,25,9,25,0.30
2013-5-12,60,52,42,50,40,24,90,66,29,29.88,29.69,24,8,26,0.01
2013-5-13,48,43,39,32,28,24,71,56,46,30.09,29.88,30,10,30,0.00
2013-5-14,59,48,37,34,29,25,75,51,28,30.12,30.02,14,5,14,0.00
2013-5-15,63,50,35,51,35,26,74,58,31,30.06,29.64,22,8,34,0.14
2013-5-16,82,63,54,49,36,20,68,42,10,31.19,29.71,115,12,115,0.17
2013-5-17,70,52,44,40,38,35,79,62,29,30.24,29.89,11,3,11,0.00
2013-5-18,77,61,46,48,40,35,72,49,24,30.32,30.22,16,4,16,0.00
2013-5-19,64,57,51,54,51,45,89,80,66,30.33,30.17,16,6,17,0.12
2013-5-20,85,66,54,64,58,51,92,77,48,30.17,29.96,11,4,11,0.00
2013-5-21,89,77,63,67,63,59,91,63,39,30.00,29.84,29,5,29,0.00
2013-5-22,83,73,43,62,50,23,55,45,17,30.62,29.85,15,6,15,0.00
2013-5-23,76,70,55,65,58,29,89,70,21,30.62,30.08,20,8,24,0.11
2013-5-24,66,52,42,62,49,39,94,90,81,30.33,30.00,20,8,24,0.60
2013-5-25,44,42,41,42,40,38,93,91,86,30.32,30.23,28,9,34,1.04
2013-5-26,54,46,40,46,41,38,94,83,68,30.46,30.20,22,5,22,0.13
2013-5-27,69,57,40,43,38,32,89,52,31,30.53,30.44,25,9,25,0.00
2013-5-28,76,61,45,50,41,32,70,50,30,30.56,30.47,14,4,17,0.00
2013-5-29,82,67,57,68,61,51,93,82,61,30.46,30.29,18,5,18,0.67
2013-5-30,82,70,62,69,64,60,94,81,59,30.47,30.39,18,5,18,0.00
2013-5-31,86,70,64,72,63,61,91,79,54,30.47,30.44,8,1,8,0.00
2013-6-1,88,86,71,68,65,60,69,49,44,30.34,30.20,17,8,17,0.00
2013-6-2,88,82,0,68,64,32,93,51,21,30.58,28.83,12,8,14,0.06
2013-6-3,68,61,52,65,51,38,95,71,46,30.31,28.89,24,8,24,0.01
2013-6-4,67,58,46,46,43,38,79,59,42,30.51,30.31,20,8,20,0.00
2013-6-5,70,67,54,47,45,42,71,47,40,30.59,30.48,12,7,12,0.00
2013-6-6,68,61,54,53,48,44,90,64,46,30.54,30.41,23,6,23,0.28
2013-6-7,59,55,53,55,51,49,92,88,83,30.42,30.18,23,8,23,0.47
2013-6-8,65,59,52,59,55,51,95,88,78,30.44,30.10,13,5,13,0.33
2013-6-9,74,67,58,57,56,54,87,69,54,30.58,30.43,14,7,14,0.00
2013-6-10,74,57,0,59,57,45,91,80,54,30.57,30.26,19,6,19,0.09
2013-6-11,66,62,57,60,57,54,93,85,78,30.26,29.96,24,11,24,0.31
2013-6-12,65,64,56,59,58,50,80,80,76,30.25,30.02,10,9,17,0.00
2013-6-13,58,55,51,54,51,48,92,87,79,30.23,30.08,14,4,16,0.94
2013-6-14,73,55,43,58,51,28,94,87,23,30.26,28.84,4,2,7,0.01
2013-6-15,73,69,60,73,49,33,100,53,23,30.26,30.00,9,2,14,0.00
2013-6-16,71,60,48,60,48,40,88,66,47,30.11,30.00,7,5,20,0.11
2013-6-17,79,68,60,62,60,56,90,75,55,30.12,29.88,9,5,20,0.09
2013-6-18,67,61,53,59,55,50,94,82,67,30.05,29.99,5,1,13,0.01
2013-6-19,74,61,50,51,43,34,94,57,24,30.24,30.04,7,2,15,0.00
2013-6-20,79,67,50,52,48,40,80,52,34,30.35,30.25,5,2,15,0.13
2013-6-21,88,72,60,57,51,43,78,52,21,30.32,30.27,5,2,12,0.00
2013-6-22,84,74,63,64,60,57,79,64,44,30.27,30.15,7,3,17,0.18
2013-6-23,88,78,70,71,65,61,77,65,50,30.22,29.95,8,4,23,24.56
2013-6-24,86,74,65,70,65,59,94,75,55,29.96,29.83,13,4,22,0.31
2013-6-25,84,72,60,68,64,58,94,79,52,29.86,29.00,8,3,21,0.04
2013-6-26,80,70,67,67,65,63,92,83,61,29.81,29.74,6,3,16,0.14
2013-6-27,85,73,63,68,65,61,95,78,53,29.80,29.65,6,2,21,0.06
2013-6-28,76,69,64,65,63,61,94,82,62,29.61,29.40,12,5,29,1.24
2013-6-29,76,69,64,65,63,60,95,83,60,29.67,29.47,10,3,21,0.07
2013-6-30,85,71,62,67,63,58,90,78,53,29.89,29.68,3,1,13,0.14
2013-7-1,78,69,64,69,65,62,95,89,70,29.99,29.90,7,2,13,0.38
2013-7-2,83,72,66,70,67,64,95,85,63,30.11,30.00,8,2,15,0.01
2013-7-3,84,76,70,69,68,66,87,76,61,30.17,30.09,7,3,17,0.00
2013-7-4,86,79,72,70,68,66,83,70,56,30.19,30.07,8,4,19,0.00
2013-7-5,88,78,70,72,69,67,88,75,60,30.15,30.02,7,3,16,0.08
2013-7-6,83,75,70,69,66,60,90,74,47,30.10,30.00,9,3,17,0.00
2013-7-7,89,76,68,72,67,61,92,75,53,30.04,29.91,3,1,11,0.11
2013-7-8,83,74,69,69,67,65,98,81,56,30.00,29.92,7,2,15,0.01
2013-7-9,85,74,66,71,65,61,92,76,48,30.06,29.96,5,2,14,0.00
2013-7-10,80,74,70,70,67,65,96,80,67,29.97,29.76,7,3,22,0.37
2013-7-11,80,73,65,69,62,55,89,71,50,29.95,29.75,6,3,17,0.01
2013-7-12,81,70,59,62,57,54,86,66,42,30.15,29.97,5,1,25,0.00
2013-7-13,77,70,63,68,61,53,88,72,56,30.26,30.15,9,4,20,0.01
2013-7-14,87,76,66,71,68,64,95,77,54,30.29,30.19,5,2,13,0.00
2013-7-15,90,78,70,70,68,66,88,72,50,30.22,30.12,6,2,11,0.00
2013-7-16,91,79,67,67,65,61,82,64,45,30.21,30.13,5,1,13,0.00
2013-7-17,89,78,67,70,67,64,90,71,46,30.19,30.00,8,3,17,0.00
2013-7-18,88,81,74,72,70,67,87,70,54,30.04,29.93,7,4,14,0.00
2013-7-19,91,82,69,72,68,63,80,64,48,29.93,29.72,12,5,20,0.17
2013-7-20,82,73,66,67,63,58,86,72,55,29.83,29.70,9,4,20,0.09
2013-7-21,83,72,61,63,60,56,84,68,47,29.96,29.84,6,2,13,0.01
2013-7-22,85,70,59,68,62,56,93,77,57,29.98,29.82,5,2,13,0.06
2013-7-23,83,71,65,69,66,64,99,86,57,29.81,29.56,8,4,15,1.37
2013-7-24,73,67,55,64,57,46,91,73,52,29.97,29.59,12,5,20,0.00
2013-7-25,73,61,47,55,50,44,90,68,52,30.07,29.97,5,1,9,0.00
2013-7-26,78,63,55,57,54,52,90,73,47,30.04,29.97,3,1,12,0.00
2013-7-27,82,67,52,62,56,50,93,69,44,30.02,29.92,6,2,17,0.00
2013-7-28,73,68,63,66,61,56,88,79,68,29.96,29.90,8,3,21,0.11
2013-7-29,79,69,63,63,59,52,95,72,46,30.08,29.94,6,2,14,0.00
2013-7-30,76,65,57,57,54,51,82,69,51,30.13,30.06,6,4,14,0.00
2013-7-31,78,68,55,59,55,51,85,65,44,30.14,30.00,6,2,9,0.00
2013-8-1,74,65,58,61,58,53,87,78,63,30.01,29.82,8,3,20,0.14
2013-8-2,76,68,62,61,58,53,95,72,45,29.85,29.79,8,4,21,0.00
2013-8-3,76,67,60,59,53,46,87,63,40,29.86,29.78,12,5,26,0.01
2013-8-4,72,63,57,59,53,48,80,70,56,29.91,29.82,7,3,20,0.24
2013-8-5,76,61,51,49,46,42,90,61,32,30.02,29.93,5,2,14,0.00
2013-8-6,79,64,49,53,49,44,83,60,36,30.08,30.02,5,1,12,0.00
2013-8-7,74,67,60,58,56,52,80,68,48,30.11,30.04,9,4,22,0.00
2013-8-9,78,72,70,71,69,67,94,89,81,28.95,28.89,15,7,15,0.46
2013-8-10,77,69,61,67,56,46,94,66,37,29.31,28.95,26,11,26,0.00
2013-8-11,79,66,54,57,52,48,86,63,40,29.91,29.13,15,6,15,0.00
2013-8-12,84,69,56,73,57,51,85,66,46,30.09,29.75,15,4,15,0.00
2013-8-13,77,68,62,68,62,58,95,82,70,29.75,29.51,17,6,17,0.84
2013-8-14,70,60,54,59,52,50,90,75,56,29.84,29.60,26,11,27,0.04
2013-8-15,73,65,52,57,52,44,91,64,43,29.96,29.83,22,7,22,0.00
2013-8-16,80,64,51,57,52,48,93,67,36,30.14,29.82,18,3,18,0.00
2013-8-17,84,68,52,61,55,50,93,65,33,30.23,30.14,9,2,9,0.00
2013-8-18,77,66,57,63,58,53,88,75,56,30.26,30.09,6,1,6,0.00
2013-8-19,80,69,58,64,59,53,90,72,45,30.09,29.97,16,6,16,0.00
2013-8-20,83,76,67,65,60,56,76,59,43,30.12,30.06,15,7,15,0.00
2013-8-21,87,74,60,66,62,57,92,66,43,30.17,29.61,15,4,15,0.00
2013-8-22,86,75,60,69,64,51,98,71,44,30.08,29.81,21,5,21,0.00
2013-8-23,73,64,57,67,58,47,99,84,41,30.16,29.89,14,4,14,0.00
2013-8-24,85,65,50,56,50,46,90,62,34,30.32,30.15,10,3,10,0.00
2013-8-25,81,65,52,58,53,46,87,67,43,30.36,29.94,14,3,14,0.00
2013-8-26,78,69,63,68,62,55,98,79,63,30.17,29.90,18,7,18,0.00
2013-8-27,86,73,62,72,68,54,99,86,55,30.10,29.85,9,2,9,0.00
2013-8-28,92,75,64,73,67,63,99,79,44,30.03,29.83,13,3,13,0.00
2013-8-29,85,70,63,66,62,55,91,77,51,30.05,29.92,17,7,17,0.00
2013-8-30,84,72,63,68,65,60,96,80,51,30.01,29.82,13,4,13,0.00
2013-8-31,82,72,68,74,68,64,98,88,73,29.83,29.75,15,4,15,0.00
2013-9-1,86,73,68,73,68,66,95,87,63,29.87,29.81,11,3,11,0.00
2013-9-2,82,72,65,72,68,63,97,87,65,29.83,29.67,20,5,20,0.00
2013-9-3,73,66,60,65,60,55,98,82,53,30.06,29.73,21,7,21,0.00
2013-9-4,76,67,59,59,55,51,94,69,43,30.11,29.86,24,10,24,0.00
2013-9-5,71,63,52,59,48,39,90,61,33,30.19,29.91,16,6,16,0.00
2013-9-6,61,49,41,47,41,38,93,76,53,30.27,29.99,8,2,8,0.00
2013-9-7,75,60,48,59,50,44,86,72,39,30.13,29.88,13,4,13,0.00
2013-9-8,70,63,58,60,53,42,92,74,38,29.95,29.82,20,8,20,0.00
2013-9-9,11828,62,41,100,48,39,100,60,42,30.25,30.10,23,6,23,0.00
2013-9-10,84,70,61,72,64,49,95,80,62,30.12,29.95,20,5,20,0.00
2013-9-11,94,81,69,76,72,66,92,75,52,30.11,29.97,24,6,24,0.00
2013-9-12,84,73,62,74,68,51,99,84,67,29.99,29.70,14,5,14,0.00
2013-9-13,68,62,51,66,60,51,99,95,84,29.88,29.65,18,7,18,0.00
2013-9-14,60,54,49,54,50,31,99,89,70,30.27,29.87,13,6,13,0.00
2013-9-15,67,56,44,54,49,41,92,76,57,30.28,30.06,11,4,11,0.00
2013-9-16,64,56,54,55,51,46,93,81,68,30.13,30.03,17,5,17,0.00
2013-9-17,68,57,45,55,45,39,100,67,43,30.45,30.13,9,3,9,0.00
2013-9-18,74,51,41,50,42,23,93,77,38,30.34,30.16,10,2,23,0.00
2013-9-19,78,62,47,55,49,38,91,66,39,30.18,30.07,8,2,8,0.00
2013-9-20,83,66,50,62,54,48,95,69,42,30.11,29.98,13,3,13,0.00
2013-9-21,73,66,57,62,57,40,90,75,39,30.32,29.62,31,12,31,0.32
2013-9-22,66,56,45,62,50,38,99,80,56,30.37,29.61,26,10,26,0.71
2013-9-23,68,50,39,44,40,35,93,72,46,30.10,29.92,15,5,15,0.00
2013-9-24,69,51,38,69,42,36,99,74,48,30.07,29.89,13,5,53,0.00
2013-9-25,72,54,43,51,46,40,93,76,46,30.00,29.92,10,4,10,0.00
2013-9-26,68,54,44,51,47,41,98,78,49,30.16,29.93,17,3,17,0.00
2013-9-27,63,52,43,53,48,33,99,88,54,30.30,29.90,7,2,7,0.00
2013-9-28,78,57,42,70,50,42,99,81,44,30.37,29.83,7,2,7,0.00
2013-9-29,74,57,49,58,51,48,99,81,51,30.26,30.08,8,3,10,0.00
2013-9-30,77,61,47,56,50,45,93,69,41,30.11,29.99,8,3,8,0.00
2013-10-1,79,66,49,62,55,47,96,68,53,30.03,29.78,13,5,13,0.00
2013-10-2,74,64,56,62,56,44,91,76,59,30.05,29.81,29,9,29,0.00
2013-10-3,73,61,50,54,50,40,86,70,45,30.15,29.95,13,5,13,0.00
2013-10-4,63,59,52,59,55,49,96,89,65,30.10,30.04,17,3,17,0.58
2013-10-5,61,58,56,59,57,35,99,96,72,30.13,30.00,15,2,15,0.15
2013-10-6,62,58,49,58,55,49,99,90,81,30.12,30.03,25,12,25,0.45
2013-10-7,77,65,-13,66,60,-87,99,84,1,30.69,29.68,42,16,42,1.95
2013-10-8,70,55,45,49,41,38,87,61,34,30.36,29.97,9,3,15,0.00
2013-10-9,55,50,47,54,39,38,99,66,54,30.37,29.93,12,3,12,0.00
2013-10-10,64,52,41,49,44,34,90,74,46,30.34,30.02,9,3,9,0.00
2013-10-11,76,59,47,52,45,38,88,64,28,30.18,30.06,8,3,8,0.00
2013-10-12,72,60,46,54,47,38,99,64,47,30.37,29.75,23,7,23,0.00
2013-10-13,72,57,50,51,46,40,85,69,40,30.42,29.74,14,5,14,0.00
2013-10-14,50,48,47,46,44,44,91,89,85,30.36,30.33,9,5,9,0.00
2013-10-16,67,62,59,54,53,52,81,73,62,29.94,29.85,7,3,12,0.00
2013-10-17,74,62,56,56,51,46,93,69,39,29.86,29.59,12,4,17,0.06
2013-10-18,64,56,50,60,46,35,99,71,38,29.91,29.55,15,7,30,0.22
2013-10-19,66,55,45,46,41,37,76,59,40,29.92,29.67,14,3,26,0.02
2013-10-20,58,50,43,47,38,32,85,63,42,29.99,29.66,14,6,29,0.08
2013-10-21,67,55,43,41,38,34,77,53,33,30.06,29.89,12,4,21,0.00
2013-10-22,54,50,38,48,41,30,88,70,57,29.89,29.73,12,3,21,0.11
2013-10-23,54,44,36,35,32,28,79,63,41,29.78,29.58,10,0,17,0.00
2013-10-24,49,40,34,37,32,27,90,72,46,29.88,29.67,9,1,13,0.01
2013-10-25,48,40,37,34,31,26,88,72,46,30.11,29.87,0,0,12,0.00
2013-10-26,50,44,38,34,30,26,80,60,42,30.10,29.79,1,0,13,0.02
2013-10-27,47,44,38,34,32,29,79,65,50,30.03,29.76,0,0,2,0.00
2013-10-28,54,42,33,36,30,20,80,62,36,30.30,30.02,0,0,9,0.00
2013-10-29,48,34,24,28,23,12,83,66,34,30.40,30.11,6,1,47,0.00
2013-10-30,52,40,33,39,31,20,87,72,51,30.28,30.16,0,0,3,0.02
2013-10-31,62,52,38,58,48,34,95,87,78,30.17,29.65,0,0,1,1.38
2013-11-1,72,62,51,61,52,41,86,71,46,29.68,29.39,0,0,18,11.66
2013-11-2,61,50,38,47,41,33,93,72,50,29.79,29.59,0,0,1,0.12
2013-11-3,40,35,26,33,23,12,82,63,44,30.41,29.79,0,0,40,0.00
2013-11-4,42,31,23,21,17,13,74,56,36,30.59,30.41,0,0,2,0.00
2013-11-5,54,42,32,36,27,15,70,55,45,30.59,30.40,0,0,2,0.00
2013-11-6,60,52,45,47,42,36,81,69,54,30.40,29.90,0,0,28,0.05
2013-11-7,58,49,37,52,42,28,94,78,63,29.90,29.74,0,0,6,0.66
2013-11-8,44,36,32,33,28,21,90,73,47,30.08,29.83,0,0,1,0.18
2013-11-9,46,36,28,32,26,21,78,65,52,30.18,29.88,0,0,8,0.00
2013-11-10,47,43,38,38,33,28,85,69,57,29.93,29.72,0,0,1,0.17
2013-11-11,46,42,36,33,28,25,69,58,45,30.25,29.85,0,0,5,0.08
2013-11-12,44,30,22,33,20,12,89,66,48,30.20,29.87,0,0,1,0.01
2013-11-13,34,26,18,17,13,10,74,60,36,30.28,30.18,0,0,6,0.24
2013-11-14,29,29,29,17,17,17,59,59,59,30.19,30.19,0,0,0,0.00
2013-11-15,51,36,29,18,17,15,61,50,24,30.19,29.75,0,0,0,0.00
2013-11-16,62,51,48,36,22,16,60,33,25,30.22,30.06,0,0,0,0.22
2013-11-17,61,55,42,54,48,33,86,79,60,30.20,29.67,18,5,32,0.06
2013-11-18,62,54,39,58,42,29,94,64,39,29.70,29.44,23,11,40,1.30
2013-11-19,39,35,26,38,23,15,100,62,46,30.31,29.70,18,7,34,0.34
2013-11-20,40,29,20,18,15,13,73,58,38,30.56,30.31,10,1,15,0.00
2013-11-21,50,36,21,31,22,12,74,59,30,30.55,30.31,8,2,16,0.00
2013-11-22,46,43,40,44,40,31,97,88,66,30.30,29.82,21,2,31,0.09
2013-11-23,44,34,22,40,24,15,100,68,44,29.96,29.79,79,23,79,0.05
2013-11-24,26,19,13,15,3,-4,81,51,28,30.21,29.84,20,9,39,0.27
2013-11-25,32,23,11,14,8,0,67,53,45,30.33,29.95,10,4,16,0.00
2013-11-26,36,31,26,34,25,11,95,80,44,30.22,29.86,15,3,23,0.28
2013-11-27,52,37,29,49,36,18,99,96,63,30.13,29.35,17,8,31,1.10
2013-11-28,29,23,18,29,14,8,99,70,48,30.35,29.55,24,10,38,0.01
2013-11-29,34,22,17,18,13,10,84,68,46,30.64,30.35,6,1,15,0.00
2013-11-30,32,22,17,24,11,6,74,63,37,30.63,30.29,10,2,21,0.00
2013-12-1,42,35,31,32,29,23,86,77,66,30.28,29.95,12,2,18,0.00
2013-12-2,39,35,32,33,31,12,91,84,41,29.96,29.83,3,0,9,0.00
2013-12-3,41,35,31,38,31,26,97,85,74,29.95,29.85,8,2,13,0.00
2013-12-4,43,33,27,30,27,25,94,78,52,30.09,29.94,6,1,11,0.00
2013-12-5,58,51,34,53,46,29,88,82,78,30.09,29.83,13,5,27,0.05
2013-12-6,56,39,30,52,36,29,99,90,83,30.11,29.85,13,6,21,0.17
2013-12-7,37,30,26,30,25,19,98,80,51,30.40,30.08,14,5,23,0.01
2013-12-8,34,27,18,20,15,11,88,62,49,30.50,30.25,14,3,14,0.00
2013-12-9,44,30,24,34,26,15,94,84,51,30.55,29.83,26,8,26,0.00
2013-12-10,34,28,18,29,21,-1,93,76,31,30.67,29.76,22,10,22,0.00
2013-12-11,25,23,19,15,13,7,78,64,56,30.11,29.84,28,18,28,0.27
2013-12-12,25,19,12,16,5,-1,92,55,40,30.22,29.85,22,13,22,0.50
2013-12-13,28,18,8,19,8,-2,86,63,51,30.32,29.78,26,11,26,0.57
2013-12-14,21,10,5,17,3,-4,90,73,57,30.47,29.98,25,6,25,0.00
2013-12-15,28,24,16,24,20,0,93,85,42,30.22,29.47,37,11,37,1.52
2013-12-16,24,18,8,20,7,-2,86,64,49,30.32,29.67,32,15,32,1.43
2013-12-17,9,8,8,3,2,2,78,76,75,30.12,30.12,6,6,6,1.43
2013-12-18,30,25,13,22,18,10,89,77,68,30.00,29.72,18,8,18,0.05
2013-12-19,42,34,20,27,21,6,74,61,44,30.04,29.74,26,8,26,0.02
2013-12-20,51,44,37,43,33,26,89,66,47,30.03,29.83,13,5,13,0.28
2013-12-21,59,50,24,51,45,18,99,83,65,30.00,29.79,20,5,20,1.12
2013-12-22,65,48,33,60,44,22,99,89,59,30.04,29.61,33,6,34,0.04
2013-12-23,50,42,39,46,40,29,99,96,66,29.99,29.88,10,2,10,0.08
2013-12-24,73,31,-13,64,24,-18,99,77,48,30.24,29.91,29,7,29,0.28
2013-12-25,43,15,6,41,5,-100,99,67,54,30.46,29.85,27,4,27,0.59
2013-12-26,29,24,20,24,16,-100,90,72,54,29.97,29.78,12,-8,0,0.00
2013-12-27,30,29,22,23,21,16,79,73,67,30.11,28.21,15,10,15,0.59
2013-12-28,40,33,27,28,25,21,86,72,60,30.04,29.14,15,5,15,0.19
2013-12-29,42,41,37,33,32,30,76,70,63,29.78,28.86,8,3,8,0.19
2013-12-30,42,42,42,32,32,32,67,67,67,29.67,29.67,2,1,0,0.00
2013-12-31,42,18,14,32,10,3,94,73,59,30.03,28.01,32,16,32,0.19
2014-1-1,22,15,12,14,8,2,95,74,58,30.20,29.10,20,7,20,0.00
2014-1-2,14,5,-3,11,1,-7,89,86,78,30.15,28.86,8,5,8,0.00